Theta_e
300 298 296 297 296 296 296 296 296 296 296 297 297 297 298 297 298 299 300 303 306 306 302 304 303 305 308 312 308 315 318 319 312 314 311 300 300 298 296 299 297 297 298 298 300
296 296 296 296 296 296 296 296 296 296 296 297 297 296 297 296 299 296 297 300 302 301 302 303 305 309 307 308 306 311 314 312 303 302 302 299 298 297 298 298 297 296 297 299 300
295 296 296 296 296 296 296 296 296 296 296 297 297 296 296 296 296 295 297 298 300 301 302 302 303 306 304 302 301 299 310 300 298 299 298 298 298 297 298 299 297 296 296 298 299
295 295 296 296 296 296 296 296 296 296 296 297 297 297 297 299 299 296 297 298 300 302 303 303 301 301 301 304 299 301 299 299 298 297 298 298 297 298 298 299 297 294 297 298 298
295 295 296 296 296 296 296 296 296 296 296 297 298 299 298 294 295 297 297 298 300 302 300 299 300 300 302 300 299 298 297 297 297 297 297 297 297 297 296 295 296 296 297 298 298
296 295 296 296 296 296 296 297 296 297 296 297 298 299 297 297 297 297 297 298 299 300 299 298 299 299 298 298 298 297 296 296 297 297 298 298 297 298 297 295 296 297 296 295 296
295 295 296 296 296 296 296 297 297 297 297 297 299 298 295 296 297 297 298 298 299 299 298 298 299 297 296 298 297 296 299 299 298 297 298 296 297 296 296 295 295 296 295 294 295
296 296 296 296 296 296 297 297 297 298 297 298 300 297 296 297 297 297 299 299 300 300 300 300 299 295 295 296 295 298 297 299 299 296 298 297 299 299 296 294 295 294 293 293 294
296 296 296 296 296 296 297 298 297 298 298 298 299 297 297 297 297 297 298 298 299 300 300 300 298 295 295 297 296 294 299 299 298 295 296 298 298 298 295 293 294 293 292 292 293
296 297 296 296 296 297 298 298 300 298 298 299 298 298 295 295 296 297 298 299 298 298 299 297 294 294 293 295 299 299 298 298 298 296 295 296 297 296 296 295 293 293 292 292 292
297 297 297 296 296 297 298 302 296 298 296 293 294 295 295 296 297 297 297 298 298 296 298 296 296 297 298 297 296 296 298 298 297 295 295 295 294 297 295 293 294 293 293 292 292
299 297 298 296 297 297 297 294 296 296 294 294 295 295 295 296 295 296 297 298 298 298 297 296 296 296 297 297 298 298 299 298 296 295 295 295 296 297 295 294 293 293 292 292 293
300 297 298 297 297 296 296 296 297 298 295 296 295 294 294 295 294 295 296 297 296 296 295 297 296 296 297 296 298 297 299 297 297 295 294 293 297 299 298 296 295 293 293 293 292
300 297 298 297 297 297 295 296 296 299 294 298 297 296 296 295 297 296 296 297 296 295 294 294 295 297 297 298 296 300 296 296 297 297 300 294 301 298 298 296 297 296 292 293 292
300 298 298 298 296 295 295 296 297 298 299 296 295 295 296 297 295 296 296 296 296 297 299 297 295 297 298 297 296 298 296 296 296 295 295 297 296 298 297 300 298 296 294 292 292
301 299 298 296 296 295 294 297 298 301 298 294 294 296 298 296 296 295 298 295 294 296 294 294 294 296 296 295 296 296 297 297 294 295 299 299 296 300 300 300 300 298 294 293 292
302 300 300 297 295 295 297 297 302 304 294 294 292 295 297 296 297 295 297 297 298 297 297 297 296 294 294 296 295 297 299 301 302 299 305 296 296 300 300 298 298 299 296 293 292
302 301 301 300 297 295 298 296 296 294 289 294 294 295 296 295 297 295 296 294 296 297 294 297 299 295 293 294 296 295 297 301 300 302 301 297 299 302 297 297 294 295 294 293 292
303 302 302 301 298 297 294 293 300 295 297 294 295 293 288 294 294 295 295 293 296 295 298 296 299 293 293 293 294 296 297 295 295 291 297 298 298 299 298 296 295 295 294 293 293
303 301 301 301 297 294 293 299 292 296 294 294 298 295 289 287 292 295 292 294 297 295 290 296 297 294 294 293 293 295 294 297 294 297 297 300 300 303 304 302 298 295 294 293 292
302 300 300 300 297 291 294 291 291 294 294 295 295 293 294 292 290 288 292 293 295 293 290 286 294 295 292 292 294 294 294 293 293 297 300 300 301 297 300 300 298 295 294 292 292
300 304 298 296 293 283 288 289 295 295 293 294 295 297 296 296 291 290 292 294 293 292 294 291 291 295 294 292 292 293 294 295 297 295 294 298 298 298 297 296 296 295 294 293 292
300 300 296 295 302 296 289 294 293 292 293 293 294 294 295 296 294 294 294 294 292 292 292 292 291 290 295 293 291 289 294 294 294 294 293 296 302 296 296 296 295 294 294 293 292
299 304 296 295 297 304 299 299 297 291 293 292 293 292 295 296 293 290 296 293 293 293 298 294 291 293 300 297 291 290 287 293 291 291 296 297 301 301 301 299 296 294 292 292 291
300 303 299 298 298 300 301 304 299 296 290 292 293 293 293 292 295 294 295 293 294 295 295 291 290 289 290 294 289 290 287 291 295 297 297 301 298 299 300 297 294 293 291 291 290
301 301 296 301 300 301 303 310 309 300 292 293 293 294 293 293 296 296 294 293 294 294 294 289 288 286 287 291 294 294 292 291 295 297 297 297 297 298 298 298 297 296 292 291 291
304 298 301 303 300 303 307 309 308 300 296 296 294 296 294 294 294 293 293 293 294 295 294 290 287 286 290 291 291 293 293 294 295 294 295 296 298 300 298 296 295 293 292 293 292
Wind_Speed
14 14 12 12 11 11 8 7 11 17 11 11 9 9 5 8 11 11 8 12 14 20 11 2 4 4 2 3 6 2 4 3 4 6 2 2 3 3 2 3 2 3 3 1 3
14 13 12 12 13 13 11 9 10 14 12 12 9 4 5 7 8 10 14 16 15 13 5 6 4 2 4 4 4 5 3 4 2 2 2 2 1 3 1 2 1 1 3 1 3
14 13 12 13 13 14 12 12 11 11 10 9 7 4 4 4 2 4 20 18 12 10 1 3 4 3 6 5 6 3 3 4 1 2 1 1 1 2 3 4 5 5 4 4 2
11 11 12 13 14 15 14 12 10 9 9 8 4 5 5 1 2 9 19 19 9 9 3 4 6 5 5 4 3 6 3 2 3 1 1 1 4 5 3 4 5 8 5 4 4
10 11 11 12 13 14 15 12 10 8 7 6 6 4 1 4 3 14 16 16 8 6 11 4 5 4 6 5 3 4 3 3 3 2 2 1 4 5 7 8 5 5 6 5 4
12 11 12 13 13 14 15 11 8 9 4 3 7 2 0 2 6 17 15 13 16 11 11 8 3 3 6 3 3 2 5 4 0 3 0 2 3 2 5 6 5 5 6 6 7
14 14 14 15 16 15 16 11 7 6 4 3 3 1 6 3 7 16 12 9 12 10 5 6 3 4 4 5 3 5 4 2 1 4 2 1 5 8 3 6 7 6 6 7 9
15 14 15 16 16 16 18 12 6 7 4 2 2 1 2 4 6 16 12 5 7 8 7 6 9 7 5 3 6 4 4 1 1 7 1 1 8 3 5 7 9 8 8 7 7
17 16 16 16 17 16 17 10 4 7 3 2 2 3 1 5 5 15 12 7 7 6 8 5 6 5 5 4 4 6 1 2 4 3 4 2 7 4 4 8 9 9 9 7 8
19 18 18 17 15 16 12 3 3 5 2 2 5 4 6 5 8 14 9 8 4 3 4 8 6 4 4 5 4 3 2 3 4 5 5 4 18 13 10 8 11 10 9 8 8
19 19 19 17 13 18 8 1 5 4 14 4 3 3 4 13 4 12 10 5 2 8 4 5 6 3 3 0 1 5 2 2 3 1 5 4 10 23 9 10 14 13 12 10 10
20 18 19 18 11 18 6 8 4 1 4 2 1 3 2 7 4 7 15 2 5 3 4 6 3 3 1 2 2 2 1 3 5 1 3 5 17 16 6 6 8 12 12 11 6
20 19 19 16 7 8 16 8 4 3 4 2 2 2 3 5 2 7 8 3 5 5 5 5 2 1 0 4 2 2 1 2 2 8 1 8 8 5 3 3 4 6 7 7 10
19 19 18 13 2 6 6 5 3 2 5 4 2 2 2 1 3 2 5 1 6 5 3 5 1 2 2 3 2 1 2 2 4 6 3 4 5 8 4 8 5 5 7 8 9
17 17 16 12 3 4 2 4 3 2 4 1 3 3 4 1 1 3 3 3 3 3 3 2 2 2 2 1 1 2 1 1 1 2 3 1 2 9 4 6 6 7 8 9 9
13 15 13 5 5 4 5 3 3 6 5 2 3 1 1 3 2 4 2 6 4 4 5 3 1 1 2 2 2 2 2 3 3 2 2 1 3 6 4 5 2 3 7 9 9
10 11 9 5 1 5 2 3 5 4 3 4 2 2 1 1 2 3 2 2 4 5 1 3 1 1 1 3 2 2 4 3 5 3 4 0 1 12 3 6 5 4 7 9 8
10 10 8 5 4 3 2 5 3 2 6 1 2 2 2 2 1 0 3 1 2 4 4 4 5 1 3 2 2 2 3 4 5 2 5 3 7 6 6 5 7 6 6 5 7
10 10 7 5 2 1 5 3 7 7 5 8 2 4 5 3 1 2 3 4 7 8 8 5 4 1 2 1 1 3 1 1 5 2 3 4 8 11 7 11 8 9 6 8 8
5 4 6 7 4 3 4 6 5 4 5 2 7 4 6 4 1 3 1 3 3 1 4 5 2 1 2 2 2 3 5 3 3 1 5 5 5 8 4 3 2 6 9 9 8
4 1 5 9 7 4 4 8 6 6 3 5 7 4 4 5 6 4 5 4 3 3 5 3 3 1 2 5 7 3 2 3 3 4 4 3 6 7 7 4 8 9 10 9 9
9 2 6 12 2 1 4 7 3 4 1 3 1 4 8 7 6 3 7 6 6 8 6 5 5 4 6 1 1 1 3 5 4 6 3 2 9 4 7 7 5 9 7 6 7
3 3 3 4 5 4 2 4 4 6 6 6 7 7 4 7 0 6 5 0 8 6 6 4 2 2 7 4 4 3 5 3 4 2 7 5 7 1 3 4 7 9 9 8 8
3 4 1 2 1 5 5 5 5 4 4 5 4 4 4 5 3 4 5 4 6 6 6 6 2 6 7 5 4 4 4 6 5 3 4 9 21 22 20 15 9 8 10 9 9
4 5 6 6 6 6 8 11 10 7 3 6 3 7 9 6 5 6 4 3 1 6 4 6 6 4 4 4 2 4 5 8 13 13 9 23 16 25 22 8 8 7 7 8 9
5 4 0 2 5 20 14 18 21 6 13 9 7 15 11 10 11 13 9 5 6 4 6 1 3 3 4 2 5 7 7 11 20 13 17 26 29 31 30 23 21 17 9 10 10
10 2 3 9 6 11 16 23 20 10 8 8 20 11 14 23 2 2 1 2 8 12 10 7 6 3 6 3 3 11 14 23 16 8 17 17 28 27 20 14 11 10 9 12 12
Wind_Direction
46 45 42 36 29 17 6 10 359 358 353 344 325 262 291 341 5 48 48 334 321 323 345 2 113 107 67 57 39 86 64 137 174 146 209 341 27 34 303 97 47 6 140 184 22
38 38 33 17 14 14 5 347 342 355 358 351 355 244 264 321 342 35 356 343 333 336 2 46 64 91 51 30 24 65 90 184 179 137 176 312 299 329 38 45 93 314 312 318 6
30 23 21 8 9 10 7 349 346 355 356 359 19 30 302 303 334 340 350 351 346 347 340 51 93 67 62 30 3 22 133 160 184 181 160 206 263 296 148 228 205 187 204 206 225
21 17 15 6 5 4 2 356 345 350 355 359 320 324 359 36 63 345 353 354 355 8 82 65 36 54 71 77 342 87 43 151 161 31 157 162 317 301 199 237 175 199 193 180 218
7 8 5 2 2 1 -0 354 346 351 349 357 342 299 247 48 332 344 357 8 23 43 46 35 66 111 113 111 99 88 156 96 89 77 136 284 242 239 251 241 227 218 201 223 249
358 356 355 353 357 355 355 350 345 339 346 346 5 106 97 68 331 355 355 25 40 65 51 40 89 119 98 78 72 110 111 126 334 14 261 341 271 359 259 198 220 216 228 250 259
355 351 350 350 349 347 348 343 339 10 4 352 350 62 60 170 357 1 1 26 33 58 77 47 115 81 148 94 149 124 76 348 247 348 291 29 258 233 240 163 203 230 243 264 256
355 353 350 347 345 344 343 337 320 351 341 345 345 87 118 338 352 6 16 39 45 66 77 62 72 100 53 123 33 48 59 66 66 -0 278 266 271 318 191 168 221 235 249 260 265
353 352 350 346 343 344 340 341 351 346 14 341 319 84 32 342 14 360 6 350 351 61 53 85 66 81 27 66 39 13 228 276 317 53 312 49 274 275 171 195 229 237 241 247 267
353 353 349 346 344 344 344 28 65 37 14 348 40 25 23 323 325 338 352 359 15 338 23 40 50 73 38 52 224 212 192 242 262 337 352 279 269 254 249 229 237 235 238 247 251
351 350 349 345 345 351 1 138 25 348 42 108 278 292 325 326 319 -0 349 346 43 51 40 8 64 106 147 332 106 102 99 274 262 41 334 237 277 280 241 232 236 229 235 243 236
349 349 348 346 347 2 18 72 75 117 79 34 281 320 328 345 342 344 2 54 58 77 334 30 90 188 265 346 104 68 151 276 276 163 6 341 291 282 258 237 224 223 223 227 225
348 348 349 347 352 16 62 74 71 59 101 1 43 0 307 8 62 316 10 354 75 61 9 128 114 122 74 35 98 49 31 3 290 325 233 316 290 318 278 257 246 239 219 207 212
345 349 352 357 41 20 53 41 32 69 71 295 323 349 309 77 20 309 4 65 33 134 88 85 339 77 77 84 44 322 77 60 335 14 288 14 280 302 323 301 263 248 217 220 219
342 349 355 22 11 53 18 12 17 341 22 203 292 326 319 103 344 9 12 27 84 106 105 186 121 110 107 99 39 152 26 57 87 72 348 9 45 271 341 285 265 242 230 228 226
336 346 355 4 38 45 359 34 59 45 256 296 278 267 165 21 6 310 54 48 137 91 46 106 198 63 114 63 84 149 128 65 52 72 8 235 136 279 219 217 233 229 229 225 224
319 336 347 342 358 346 16 97 33 137 349 270 213 13 56 1 23 36 51 70 152 79 302 10 185 98 93 147 159 119 63 328 348 3 229 348 220 246 269 241 228 213 235 227 219
296 311 306 288 313 333 81 51 108 233 222 235 121 95 192 353 238 182 118 210 221 95 94 143 319 40 358 50 140 94 145 158 230 250 279 297 237 252 219 235 253 275 264 219 207
276 292 278 234 244 292 73 60 211 205 162 153 107 78 311 -0 86 357 229 216 193 177 158 131 254 160 81 76 78 154 140 149 99 64 35 241 288 294 252 262 261 235 235 247 239
246 287 243 202 179 131 77 233 217 201 140 157 178 164 198 238 140 150 161 218 198 295 22 219 71 344 72 134 77 160 153 74 6 332 294 278 277 245 294 274 251 236 238 239 236
193 333 190 172 158 57 178 226 241 221 169 171 200 163 202 187 169 207 226 293 154 112 67 124 107 266 47 207 174 140 174 61 115 160 199 297 254 219 236 244 240 242 242 233 232
157 198 179 163 80 120 169 194 193 194 148 216 188 194 186 163 180 235 220 210 169 152 173 202 147 182 215 120 20 332 218 174 135 229 225 153 267 262 231 246 240 259 268 259 243
211 183 171 167 204 213 270 246 223 169 203 176 208 200 177 183 229 192 205 209 149 150 160 207 290 25 339 -0 3 214 199 200 87 79 203 155 259 172 240 264 255 251 261 258 258
139 183 126 243 143 201 155 219 225 209 189 176 175 109 135 210 234 207 234 186 178 172 137 124 119 181 195 206 132 200 220 189 148 149 184 223 273 265 270 273 267 246 252 261 259
174 240 168 194 215 209 180 177 189 196 237 182 208 210 172 185 165 218 195 133 142 206 138 139 200 168 242 210 176 214 184 186 208 218 208 267 239 266 267 259 243 239 253 257 264
186 154 183 192 165 190 204 220 221 194 156 225 212 195 193 186 186 201 158 187 194 154 160 192 204 123 291 4 212 265 199 210 222 234 256 258 274 266 277 280 273 275 263 267 264
233 158 176 176 180 183 211 214 216 179 219 205 204 178 206 223 104 22 51 203 160 158 174 156 138 111 261 10 352 287 217 211 221 198 227 245 245 270 278 268 262 256 231 249 259